TimeCST,TemperatureF,Dew PointF,Humidity,Sea Level PressureIn,VisibilityMPH,Wind Direction,Wind SpeedMPH,Gust SpeedMPH,PrecipitationIn,Events,Conditions,WindDirDegrees,DateUTC
12:53 AM,36.0,28.0,73,30.13,10.0,North,5.8,-,N/A,,Overcast,10,2013-02-16 06:53:00
1:53 AM,35.1,21.9,59,30.12,10.0,North,12.7,-,N/A,,Mostly Cloudy,10,2013-02-16 07:53:00
2:53 AM,34.0,21.9,61,30.13,10.0,North,8.1,-,N/A,,Scattered Clouds,10,2013-02-16 08:53:00
3:53 AM,33.1,21.9,64,30.13,10.0,North,11.5,-,N/A,,Clear,360,2013-02-16 09:53:00
4:53 AM,30.9,21.0,67,30.14,10.0,North,9.2,-,N/A,,Overcast,360,2013-02-16 10:53:00
5:53 AM,28.9,19.9,69,30.15,10.0,NW,6.9,-,N/A,,Clear,320,2013-02-16 11:53:00
6:53 AM,28.0,19.9,72,30.16,10.0,NW,6.9,-,N/A,,Partly Cloudy,320,2013-02-16 12:53:00
7:53 AM,30.9,21.0,67,30.17,10.0,NW,6.9,-,N/A,,Clear,320,2013-02-16 13:53:00
8:53 AM,35.1,19.0,52,30.18,10.0,North,10.4,-,N/A,,Clear,350,2013-02-16 14:53:00
9:53 AM,37.0,16.0,42,30.18,10.0,North,13.8,-,N/A,,Clear,350,2013-02-16 15:53:00
10:53 AM,37.9,15.1,39,30.19,10.0,WNW,12.7,21.9,N/A,,Mostly Cloudy,300,2013-02-16 16:53:00
11:53 AM,37.9,14.0,38,30.17,10.0,NNW,12.7,24.2,N/A,,Mostly Cloudy,330,2013-02-16 17:53:00
12:53 PM,39.9,16.0,38,30.15,10.0,NNW,10.4,19.6,N/A,,Overcast,330,2013-02-16 18:53:00
1:53 PM,39.0,15.1,38,30.14,10.0,NW,12.7,20.7,N/A,,Overcast,310,2013-02-16 19:53:00
2:53 PM,37.9,16.0,41,30.14,10.0,NW,17.3,-,N/A,,Overcast,320,2013-02-16 20:53:00
3:53 PM,37.9,14.0,38,30.15,10.0,WNW,13.8,27.6,N/A,,Overcast,300,2013-02-16 21:53:00
4:53 PM,36.0,16.0,44,30.16,10.0,NNW,10.4,-,N/A,,Scattered Clouds,330,2013-02-16 22:53:00
5:53 PM,35.1,14.0,42,30.18,10.0,NW,9.2,-,N/A,,Mostly Cloudy,310,2013-02-16 23:53:00
6:53 PM,33.1,12.9,43,30.21,10.0,NW,8.1,-,N/A,,Clear,320,2013-02-17 00:53:00
7:53 PM,30.9,14.0,50,30.22,10.0,NW,6.9,-,N/A,,Clear,320,2013-02-17 01:53:00
8:53 PM,30.0,12.9,49,30.24,10.0,NW,8.1,-,N/A,,Clear,320,2013-02-17 02:53:00
9:53 PM,28.9,12.9,51,30.25,10.0,NW,6.9,-,N/A,,Clear,320,2013-02-17 03:53:00
10:53 PM,28.9,12.9,51,30.25,10.0,NW,6.9,-,N/A,,Clear,320,2013-02-17 04:53:00
11:53 PM,27.0,12.9,56,30.26,10.0,NW,6.9,-,N/A,,Clear,310,2013-02-17 05:53:00